Find Starlink 32048

NORAD ID: 60156 Int'l Des: 2024-120 Owner: SPXS Country: US Constellation: starlink operational
LEOCIRCULAR

現在のビュー

3D地球を読み込み中...

About Starlink 32048

Starlink 32048 (NORAD 60156) is a starlink constellation satellite (v2 mini) launched Jun 27, 2024 by SPXS of US. It operates in LEO, CIRCULAR orbit with a mass of 730.00 kg.

次回通過

Passes for default location (London). Set your location on the main map for personalized predictions.

高度履歴

Loading altitude history...

軌道要素

1 60156U 24120X 26262.92980375 .00003128 00000-0 10371-3 0 9997
2 60156 53.1587 134.2654 0001413 117.3563 242.7583 15.34386580126169
Epoch: Sep 19, 2026 • Age: 30 hours

現在のステータス

高度 463.2 km
遠地点 / 近地点 N/A
速度 7.64 km/s
衛星直下点 9.03°N, 74.22°E
打ち上げ日 Jun 27, 2024
運用期間 2.2 years
タイプ internet

技術仕様

分類 Payload
質量 730.00 kg
乾燥質量 700.00 kg
長さ 0.30 m
スパン 29.00 m
形状 ? Box + pan
製造者 SPXS
バスタイプ Starlink V2M
フェーズステータス In Orbit
所有者/国 SPXS/US

Most Searched